Location: ??
(35.4032°N, 139.3073°E)
Time: 12:32:11
(UTC+00:00)

Cosmos 1340 Rocket - Pass Details

Date: 13 April 2024
Orbit: 507 x 543 km, 81.2° (Epoch: 26 May)

Event Time Altitude Azimuth Distance (km) Brightness Sun altitude
Exits shadow 18:17:01 84° 53° (NE) 521 2.6 -22.6°
Drops below altitude 10° 18:20:47 10° 9° (N) 1,752 5.9 -21.9°
Sets 18:22:56 0° 9° (N) 2,649 6.9 -21.5°
